Location: Boissi�res
(45.2500°N, 2.3667°E)
Time: 12:01:10
(UTC+00:00)

Lacrosse 4 Rocket - Pass Details

Date: 03 March 2021
Orbit: 537 x 620 km, 68.0° (Epoch: 17 April)

Event Time Altitude Azimuth Distance (km) Brightness Sun altitude
Rises 20:47:53 0° 234° (SW) 2,829 5.3 -32.9°
Reaches altitude 10° 20:50:16 10° 244° (WSW) 1,944 4.5 -33.2°
Enters shadow 20:50:55 14° 248° (WSW) 1,719 4.2 -33.3°
